Weather History for KUTA - March, 2014

Change the Weather History Date:

Monday, March 31, 2014

  Actual Average (KMEM) Record (KMEM)
Temperature  
Mean Temperature 56 °F 58 °F  
Max Temperature 71 °F 69 °F 85 °F (1946)
Min Temperature 42 °F 48 °F 26 °F (1923)
Degree Days  
Heating Degree Days 8 8  
Month to date heating degree days 359  
Since 1 July heating degree days 2808  
Cooling Degree Days 0 1  
Month to date cooling degree days 17  
Year to date cooling degree days 20  
Growing Degree Days 6 (Base 50)    
Moisture  
Dew Point 44 °F    
Average Humidity 64    
Maximum Humidity 93    
Minimum Humidity 31    
Precipitation  
Precipitation 0.00 in 0.19 in 2.42 in (1890)
Month to date precipitation 5.16  
Year to date precipitation 13.53  
Snow  
Snow 0.00 in 0.00 in T in (1953)
Month to date snowfall 0.4  
Since 1 July snowfall 3.8  
Snow Depth -    
Sea Level Pressure  
Sea Level Pressure 30.06 in    
Wind  
Wind Speed 7 mph (SSE)    
Max Wind Speed 17 mph    
Max Gust Speed 23 mph    
Visibility 10 miles    
Events      
T = Trace of Precipitation, MM = Missing Value Source: NWS Daily Summary

Daily Weather History Graph

Daily Weather History Graph

Search for Another Location

Airport or City:

Trip Planner

Search our weather history database for the weather conditions in past years. The results will help you decide how hot, cold, wet, or windy it might be!

Date:

Astronomy

Mar. 31, 2014 Rise Set
Actual Time 6:49 AM CDT 7:21 PM CDT
Civil Twilight 6:24 AM CDT 7:47 PM CDT
Nautical Twilight 5:54 AM CDT 8:17 PM CDT
Astronomical Twilight 5:24 AM CDT 8:47 PM CDT
Moon 7:15 AM CDT (3/31) 8:36 PM CDT (3/31)
Length of Visible Light 13h 22m
Length of Day
12h 32m
New Moon, 1% of the Moon is Illuminated
Mar 31
New Moon
Apr 7
First Quarter
Apr 15
Full
Apr 22
Last Quarter
Apr 29
New

Hourly Weather History & Observations

Time (CDT) Temp. Windchill Dew Point Humidity Pressure Visibility Wind Dir Wind Speed Gust Speed Precip Events Conditions
12:15 AM 46.4 °F 43.5 °F 44.6 °F 93% 30.13 in 10.0 mi SE 5.8 mph - N/A   Clear
12:35 AM 46.4 °F - 44.6 °F 93% 30.13 in 10.0 mi Calm Calm - N/A   Clear
12:55 AM 48.2 °F - 46.4 °F 93% 30.13 in 10.0 mi SSE 4.6 mph - N/A   Clear
1:15 AM 46.4 °F - 44.6 °F 93% 30.13 in 10.0 mi Calm Calm - N/A   Clear
1:35 AM 46.4 °F 45.2 °F 44.6 °F 93% 30.13 in 10.0 mi East 3.5 mph - N/A   Clear
1:55 AM 46.4 °F 45.2 °F 44.6 °F 93% 30.13 in 10.0 mi ESE 3.5 mph - N/A   Clear
2:15 AM 44.6 °F 43.1 °F 42.8 °F 93% 30.12 in 10.0 mi ESE 3.5 mph - N/A   Clear
2:35 AM 44.6 °F 41.4 °F 42.8 °F 93% 30.11 in 10.0 mi ESE 5.8 mph - N/A   Clear
2:55 AM 44.6 °F 42.2 °F 42.8 °F 93% 30.11 in 10.0 mi ESE 4.6 mph - N/A   Clear
3:15 AM 44.6 °F 43.1 °F 41.0 °F 87% 30.10 in 10.0 mi ESE 3.5 mph - N/A   Clear
3:35 AM 42.8 °F 39.3 °F 41.0 °F 93% 30.10 in 10.0 mi ESE 5.8 mph - N/A   Clear
3:55 AM 42.8 °F - 41.0 °F 93% 30.09 in 10.0 mi Calm Calm - N/A   Clear
4:15 AM 42.8 °F 41.1 °F 41.0 °F 93% 30.09 in 10.0 mi ESE 3.5 mph - N/A   Clear
4:35 AM 42.8 °F 41.1 °F 41.0 °F 93% 30.08 in 10.0 mi ESE 3.5 mph - N/A   Clear
4:55 AM 42.8 °F 41.1 °F 39.2 °F 87% 30.09 in 10.0 mi ESE 3.5 mph - N/A   Clear
5:15 AM 42.8 °F 40.1 °F 41.0 °F 93% 30.08 in 10.0 mi ESE 4.6 mph - N/A   Clear
5:35 AM 44.6 °F 43.1 °F 41.0 °F 87% 30.09 in 10.0 mi SE 3.5 mph - N/A   Clear
5:55 AM 42.8 °F 39.3 °F 39.2 °F 87% 30.08 in 10.0 mi SE 5.8 mph - N/A   Clear
6:15 AM 42.8 °F 39.3 °F 39.2 °F 87% 30.09 in 10.0 mi SE 5.8 mph - N/A   Clear
6:35 AM 42.8 °F 38.6 °F 39.2 °F 87% 30.10 in 10.0 mi SSE 6.9 mph - N/A   Clear
6:55 AM 44.6 °F 40.2 °F 39.2 °F 81% 30.10 in 10.0 mi SE 8.1 mph - N/A   Clear
7:15 AM 44.6 °F 40.2 °F 39.2 °F 81% 30.11 in 10.0 mi SSE 8.1 mph - N/A   Clear
7:35 AM 46.4 °F 42.9 °F 41.0 °F 81% 30.11 in 10.0 mi SE 6.9 mph - N/A   Clear
7:55 AM 50.0 °F - 42.8 °F 76% 30.12 in 10.0 mi SSE 5.8 mph - N/A   Clear
8:15 AM 50.0 °F - 42.8 °F 76% 30.12 in 10.0 mi SE 6.9 mph - N/A   Clear
8:35 AM 51.8 °F - 42.8 °F 71% 30.12 in 10.0 mi SSE 8.1 mph - N/A   Clear
8:55 AM 53.6 °F - 44.6 °F 72% 30.12 in 10.0 mi SSE 10.4 mph - N/A   Clear
9:15 AM 53.6 °F - 42.8 °F 67% 30.11 in 10.0 mi SSE 11.5 mph - N/A   Clear
9:35 AM 55.4 °F - 44.6 °F 67% 30.12 in 10.0 mi South 10.4 mph - N/A   Clear
9:55 AM 59.0 °F - 44.6 °F 59% 30.11 in 10.0 mi SSE 12.7 mph - N/A   Clear
10:15 AM 60.8 °F - 46.4 °F 59% 30.11 in 10.0 mi SSE 10.4 mph - N/A   Clear
10:35 AM 60.8 °F - 46.4 °F 59% 30.11 in 10.0 mi South 9.2 mph - N/A   Clear
10:55 AM 62.6 °F - 46.4 °F 55% 30.12 in 10.0 mi SSE 9.2 mph - N/A   Clear
11:15 AM 64.4 °F - 46.4 °F 52% 30.11 in 10.0 mi SSE 11.5 mph - N/A   Clear
11:35 AM 64.4 °F - 48.2 °F 56% 30.11 in 10.0 mi South 11.5 mph - N/A   Clear
11:55 AM 66.2 °F - 44.6 °F 46% 30.11 in 10.0 mi South 12.7 mph 20.7 mph N/A   Clear
12:15 PM 68.0 °F - 44.6 °F 43% 30.10 in 10.0 mi South 12.7 mph 20.7 mph N/A   Clear
12:35 PM 68.0 °F - 44.6 °F 43% 30.09 in 10.0 mi South 16.1 mph - N/A   Clear
12:55 PM 68.0 °F - 44.6 °F 43% 30.08 in 10.0 mi SSE 13.8 mph - N/A   Clear
1:15 PM 68.0 °F - 44.6 °F 43% 30.08 in 10.0 mi SSE 17.3 mph 20.7 mph N/A   Clear
1:35 PM 69.8 °F - 44.6 °F 40% 30.07 in 10.0 mi South 12.7 mph - N/A   Clear
1:55 PM 69.8 °F - 42.8 °F 38% 30.06 in 10.0 mi South 11.5 mph 17.3 mph N/A   Clear
2:15 PM 69.8 °F - 42.8 °F 38% 30.04 in 10.0 mi South 12.7 mph - N/A   Clear
2:35 PM 69.8 °F - 42.8 °F 38% 30.03 in 10.0 mi South 15.0 mph 20.7 mph N/A   Clear
2:55 PM 71.6 °F - 42.8 °F 35% 30.02 in 10.0 mi South 10.4 mph 23.0 mph N/A   Clear
3:15 PM 71.6 °F - 41.0 °F 33% 30.01 in 10.0 mi South 13.8 mph - N/A   Clear
3:35 PM 71.6 °F - 41.0 °F 33% 30.00 in 10.0 mi South 16.1 mph - N/A   Clear
3:55 PM 69.8 °F - 41.0 °F 35% 30.00 in 10.0 mi South 12.7 mph - N/A   Clear
4:15 PM 71.6 °F - 41.0 °F 33% 29.99 in 10.0 mi South 13.8 mph - N/A   Clear
4:35 PM 71.6 °F - 39.2 °F 31% 29.99 in 10.0 mi South 13.8 mph 18.4 mph N/A   Clear
4:55 PM 69.8 °F - 42.8 °F 38% 29.99 in 10.0 mi South 12.7 mph - N/A   Scattered Clouds
5:15 PM 69.8 °F - 44.6 °F 40% 29.98 in 10.0 mi South 12.7 mph 17.3 mph N/A   Clear
5:35 PM 68.0 °F - 44.6 °F 43% 29.98 in 10.0 mi South 12.7 mph - N/A   Clear
5:55 PM 68.0 °F - 44.6 °F 43% 29.99 in 10.0 mi South 9.2 mph - N/A   Clear
6:15 PM 68.0 °F - 46.4 °F 46% 30.00 in 10.0 mi SSW 9.2 mph - N/A   Clear
6:35 PM 66.2 °F - 46.4 °F 49% 30.00 in 10.0 mi SSW 8.1 mph - N/A   Clear
6:55 PM 64.4 °F - 50.0 °F 59% 30.00 in 10.0 mi SSW 6.9 mph - N/A   Clear
7:15 PM 64.4 °F - 50.0 °F 59% 30.00 in 10.0 mi South 6.9 mph - N/A   Clear
7:35 PM 60.8 °F - 51.8 °F 72% 29.98 in 10.0 mi SSE 8.1 mph - N/A   Clear
7:55 PM 62.6 °F - 50.0 °F 63% 29.97 in 10.0 mi SSE 10.4 mph - N/A   Clear
8:15 PM 64.4 °F - 48.2 °F 56% 29.93 in 10.0 mi SE 12.7 mph - N/A   Scattered Clouds
8:35 PM 64.4 °F - 48.2 °F 56% 29.94 in 10.0 mi South 11.5 mph - N/A   Clear
8:55 PM 64.4 °F - 46.4 °F 52% 29.94 in 10.0 mi South 11.5 mph - N/A   Clear
9:15 PM 64.4 °F - 44.6 °F 49% 29.96 in 10.0 mi South 9.2 mph - N/A   Scattered Clouds
9:35 PM 64.4 °F - 46.4 °F 52% 29.97 in 10.0 mi South 9.2 mph - N/A   Scattered Clouds
9:55 PM 64.4 °F - 44.6 °F 49% 29.99 in 10.0 mi SSW 6.9 mph - N/A   Scattered Clouds
10:15 PM 62.6 °F - 46.4 °F 55% 30.00 in 10.0 mi WSW 4.6 mph - N/A   Mostly Cloudy
10:35 PM 62.6 °F - 48.2 °F 59% 29.99 in 10.0 mi Calm Calm - N/A   Overcast
10:55 PM 60.8 °F - 50.0 °F 68% 30.00 in 10.0 mi Calm Calm - N/A   Mostly Cloudy
11:15 PM 60.8 °F - 50.0 °F 68% 30.00 in 10.0 mi Calm Calm - N/A   Mostly Cloudy
11:35 PM 60.8 °F - 50.0 °F 68% 30.01 in 10.0 mi Calm Calm - N/A   Scattered Clouds
11:55 PM 57.2 °F - 51.8 °F 82% 30.02 in 10.0 mi SW 3.5 mph - N/A   Scattered Clouds